Location: Leuk
(46.3174°N, 7.6341°E)
Time: 06:43:07
(UTC+00:00)

Cosmos 1933 - Pass Details

Date: 09 March 2021
Orbit: 547 x 563 km, 82.5° (Epoch: 18 April)

Event Time Altitude Azimuth Distance (km) Brightness Sun altitude
Exits shadow 03:58:18 15° 177° (S) 1,551 5.5 -20.6°
Maximum altitude 04:01:37 68° 97° (E) 600 3.6 -20.0°
Drops below altitude 10° 04:05:40 10° 14° (NNE) 1,851 6.3 -19.4°
Sets 04:07:52 0° 12° (NNE) 2,754 7.2 -19.0°
